Location: Carnetin
(48.9010°N, 2.7059°E)
Time: 14:39:02
(UTC+00:00)

NOSS 8 (F) - Pass Details

Date: 24 October 2021
Orbit: 374 x 1788 km, 63.3° (Epoch: 27 November)

Event Time Altitude Azimuth Distance (km) Brightness Sun altitude
Rises 17:33:56 0° 209° (SSW) 2,618 8.8 -9.1°
Reaches altitude 10° 17:36:19 10° 204° (SSW) 1,594 7.6 -9.5°
Maximum altitude 17:39:35 49° 128° (SE) 528 4.4 -10.0°
Enters shadow 17:42:02 13° 54° (NE) 1,216 6.1 -10.4°
